[[{"header":{"parameterUnit":"m.s-1","parameterCategory":1,"la1":30.2991,"la2":30.254,"lo1":-89.0895,"lo2":-89.0444,"dy":0.0017,"dx":0.0017,"nx":28,"ny":28,"refTime":"2025-04-16T03:00:00:Z","depth":0,"parameterNumber":2,"parameterNumberName":"U-component_of_WINDS"},"data":[0,0,0,0,0,0,0,0,0,0,0,0,0,0,0,0,0,0,0,0,0,0,0,0,0,0,0,0,0,0,0,0,0,0,0,0,0,0,0,0,0,0,0,0,0,0,0,0,0,0,0,0,0,0,0,0,0,0,0.3736,0.3737,0,0.3805,0.3806,0.3807,0.3837,0.3837,0.3837,0.3837,0.3907,0.3909,0.391,0,0,0,0,0,0,0,0,0,0,0,0,0,0.3627,0.3629,0.3736,0.3737,0.3738,0.3805,0.3806,0.3807,0.3837,0.3837,0.3837,0.3837,0.3906,0.3908,0.3911,0,0,0,0,0,0,0,0,0,0,0,0,0,0.3683,0.363,0.3736,0.3761,0.3764,0.3805,0.3806,0.3807,0.3837,0.3837,0.3837,0.3837,0.3905,0.3908,0.3911,0.3932,0,0,0.392,0.3921,0,0,0,0,0,0,0,0,0.368,0.3687,0.3756,0.3759,0.3762,0.3812,0.3793,0.3849,0.3837,0.3809,0.3837,0.3837,0.3875,0.3881,0.3894,0.3935,0.3938,0.392,0.3922,0.3923,0.3924,0,0,0,0,0,0,0,0.3676,0.3684,0.3763,0.3757,0.3761,0.3768,0.3776,0.3804,0.3842,0.3812,0.3814,0.3822,0.3877,0.3891,0.3896,0.3939,0.392,0.3923,0.3924,0.3926,0.4,0.4,0,0,0,0,0,0,0.3668,0.3681,0.3761,0.3765,0.372,0.377,0.3779,0.3796,0.3842,0.3849,0.3822,0.3823,0.3886,0.3892,0.3898,0.3925,0.3923,0.3926,0.3928,0.4,0.4,0.4,0,0,0,0,0,0,0.3666,0.3675,0.3758,0.3724,0.3735,0.3772,0.3792,0.3798,0.3812,0.385,0.3857,0.3829,0.3886,0.3894,0.3923,0.3928,0.3927,0.393,0.3999,0.4,0.4,0.398,0,0,0,0,0,0,0.3663,0.3674,0.3683,0.3724,0.3737,0.3782,0.3792,0.3799,0.3817,0.3819,0.3859,0.3865,0.3887,0.3919,0.3926,0.3932,0.3932,0.3999,0.4,0.4,0.398,0.3979,0.3979,0,0,0,0,0,0.3659,0.3675,0.3684,0.3693,0.3749,0.3783,0.379,0.3815,0.3817,0.3826,0.385,0.3864,0.3926,0.3921,0.393,0.3937,0.3999,0.3999,0.4,0.398,0.398,0.3979,0,0,0,0,0,0,0.3634,0.3681,0.3691,0.3721,0.3747,0.3788,0.38,0.3813,0.384,0.3841,0.387,0.3879,0.3905,0.3924,0.3917,0.3959,0.3964,0.3966,0.3946,0.3945,0.3945,0.394,0.3935,0,0,0,0,0,0.3632,0.3656,0.3695,0.3718,0.373,0.3763,0.3778,0.3795,0.3824,0.3836,0.3862,0.3889,0.3915,0.3931,0.3957,0.3983,0.3991,0.3992,0.3991,0.399,0.3992,0.4006,0.4007,0.4002,0.4002,0.4002,0,0,0.3628,0.3656,0.367,0.3713,0.3736,0.376,0.3772,0.3797,0.3815,0.3839,0.3868,0.3888,0.392,0.3947,0.3961,0.3964,0.3995,0.3991,0.399,0.3992,0.4007,0.4007,0.4008,0.4002,0.4002,0.4002,0,0,0.3632,0.3657,0.3678,0.37,0.3734,0.3755,0.376,0.3798,0.3813,0.3842,0.3861,0.3882,0.3926,0.3948,0.3964,0.3976,0.3989,0.3983,0.398,0.3993,0.3994,0.3994,0.3998,0.3999,0.3985,0.3985,0.3985,0,0.3623,0.366,0.3686,0.371,0.3728,0.3752,0.3772,0.3793,0.3833,0.3845,0.3848,0.3903,0.3926,0.3959,0.3961,0.3974,0.398,0.3979,0.3992,0.3992,0.3993,0.3997,0.3998,0.3984,0.3984,0.3984,0.3984,0,0.3646,0.3672,0.3684,0.3723,0.3743,0.3765,0.3794,0.381,0.3825,0.3845,0.3874,0.3903,0.3934,0.3943,0.3958,0.3977,0.3978,0.3986,0.3991,0.3992,0.3996,0.3998,0.3982,0.3983,0.3983,0.3983,0,0,0.3638,0.3691,0.3695,0.3712,0.3751,0.3771,0.3793,0.3824,0.3838,0.3865,0.3884,0.392,0.3927,0.3946,0.3963,0.3975,0.3982,0.3981,0.3983,0.398,0.4004,0.3998,0.4,0.399,0.3991,0.3991,0.4001,0,0.3648,0.369,0.3714,0.3746,0.3769,0.3791,0.381,0.3836,0.3855,0.3877,0.3898,0.3923,0.3931,0.3942,0.3955,0.3978,0.3987,0.3978,0.4008,0.4009,0.4,0.4002,0.3996,0.4004,0.4003,0.4004,0.4004,0,0.3666,0.3692,0.3726,0.3762,0.3772,0.379,0.3819,0.384,0.3869,0.3882,0.3903,0.392,0.3944,0.3946,0.3979,0.3972,0.3986,0.3999,0.4,0.4004,0.4007,0.4006,0.4008,0.4009,0.4007,0.4006,0.4006,0,0.3656,0.37,0.3726,0.374,0.3782,0.3794,0.3812,0.3841,0.3857,0.3883,0.3894,0.3922,0.3937,0.3959,0.3982,0.3982,0.4012,0.4017,0.4024,0.4023,0.403,0.4029,0.4034,0.4038,0.4038,0.4038,0.4038,0,0.3665,0.3685,0.3722,0.3738,0.3761,0.3787,0.3809,0.3828,0.3853,0.3873,0.3893,0.3911,0.3941,0.3963,0.3981,0.4005,0.4012,0.4023,0.4028,0.4022,0.402,0.4031,0.4031,0.4038,0.4038,0.4038,0.4038,0,0.3658,0.3684,0.3714,0.3751,0.376,0.3775,0.3807,0.3823,0.3842,0.3867,0.3874,0.3905,0.3932,0.3957,0.3992,0.4005,0.4028,0.4035,0.4019,0.4021,0.4026,0.4025,0.4039,0.4042,0.4043,0.4043,0.4043,0,0.3662,0.3678,0.3716,0.3731,0.3748,0.3772,0.3789,0.3815,0.3832,0.3865,0.3877,0.3905,0.3928,0.3969,0.3994,0.4021,0.4028,0.4031,0.4032,0.4025,0.4028,0.4027,0.4028,0.403,0.403,0.403,0.403,0,0.3666,0.3678,0.3702,0.373,0.375,0.3773,0.3798,0.3808,0.3839,0.3857,0.3884,0.3902,0.3937,0.3964,0.3994,0.4012,0.4026,0.4029,0.4032,0.4026,0.4016,0.4021,0.4017,0.4029,0.4029,0.4029,0.4029,0.4029,0.3665,0.3679,0.3708,0.3734,0.3755,0.3777,0.3794,0.3815,0.3838,0.387,0.3883,0.391,0.3938,0.3979,0.3997,0.4018,0.4021,0.4026,0.4027,0.4027,0.4026,0.4012,0.4023,0.4023,0.4023,0.4023,0.4023,0,0.3669,0.3689,0.3713,0.3746,0.3766,0.3777,0.3804,0.382,0.3843,0.3868,0.3891,0.3921,0.3947,0.3974,0.4002,0.4013,0.402,0.402,0.4019,0.4023,0.4021,0.4016,0.4014,0.4014,0.4014,0.4014,0.4014,0.4014,0.3674,0.37,0.3715,0.375,0.377,0.3796,0.3811,0.3831,0.3851,0.3884,0.3905,0.3923,0.3949,0.3978,0.4002,0.4009,0.4018,0.4016,0.4025,0.4023,0.4023,0.4024,0.4019,0.4018,0.4018,0.4025,0.4025,0.4025]},{"header":{"parameterUnit":"m.s-1","parameterCategory":1,"la1":30.2991,"la2":30.254,"lo1":-89.0895,"lo2":-89.0444,"dy":0.0017,"dx":0.0017,"nx":28,"ny":28,"refTime":"2025-04-16T03:00:00:Z","depth":0,"parameterNumber":3,"parameterNumberName":"V-component_of_WINDS"},"data":[0,0,0,0,0,0,0,0,0,0,0,0,0,0,0,0,0,0,0,0,0,0,0,0,0,0,0,0,0,0,0,0,0,0,0,0,0,0,0,0,0,0,0,0,0,0,0,0,0,0,0,0,0,0,0,0,0,0,3.0817,3.0817,0,3.0788,3.0787,3.0787,3.0711,3.0709,3.0708,3.0706,3.0675,3.0676,3.0677,0,0,0,0,0,0,0,0,0,0,0,0,0,3.0805,3.0806,3.0817,3.0817,3.0816,3.0788,3.0787,3.0787,3.0711,3.0709,3.0707,3.0705,3.0675,3.0676,3.0677,0,0,0,0,0,0,0,0,0,0,0,0,0,3.0797,3.0806,3.0817,3.0775,3.0771,3.0788,3.0787,3.0787,3.0712,3.0709,3.0707,3.0705,3.0675,3.0676,3.0677,3.0731,0,0,3.068,3.068,0,0,0,0,0,0,0,0,3.0797,3.0797,3.0782,3.0778,3.0774,3.075,3.0772,3.0768,3.0712,3.0734,3.0706,3.0703,3.0702,3.0701,3.07,3.073,3.0729,3.068,3.0681,3.0681,3.0681,0,0,0,0,0,0,0,3.0798,3.0798,3.0805,3.0782,3.0777,3.0757,3.0753,3.0771,3.0732,3.0732,3.0727,3.0724,3.0699,3.07,3.0699,3.0728,3.068,3.0681,3.0681,3.0682,3.0797,3.0799,0,0,0,0,0,0,3.0805,3.0799,3.0806,3.0804,3.078,3.0759,3.0755,3.076,3.0732,3.0725,3.0726,3.0721,3.0699,3.0698,3.0698,3.0757,3.0681,3.0682,3.0682,3.0795,3.0798,3.08,0,0,0,0,0,0,3.0805,3.0806,3.0807,3.08,3.0799,3.0762,3.0769,3.0761,3.0761,3.0727,3.072,3.0734,3.0697,3.0696,3.0723,3.0755,3.0682,3.0683,3.0792,3.0796,3.0799,3.0878,0,0,0,0,0,0,3.0805,3.0807,3.0828,3.0801,3.08,3.0834,3.0771,3.0762,3.0763,3.0756,3.0732,3.0726,3.0695,3.0722,3.0724,3.0755,3.0684,3.0789,3.0793,3.0798,3.0873,3.0884,3.0894,0,0,0,0,0,3.0805,3.0852,3.0829,3.0831,3.0825,3.0836,3.0835,3.0799,3.0766,3.0786,3.0764,3.0727,3.0752,3.0725,3.0727,3.0759,3.0786,3.0792,3.0797,3.0868,3.0882,3.0894,0,0,0,0,0,0,3.0884,3.0848,3.0822,3.0863,3.0853,3.0823,3.0848,3.0816,3.0815,3.0808,3.0763,3.0758,3.079,3.0777,3.0748,3.0809,3.0763,3.0769,3.0816,3.0829,3.084,3.0841,3.0685,0,0,0,0,0,3.0906,3.0918,3.0886,3.0925,3.0921,3.0886,3.0889,3.0862,3.085,3.0845,3.0825,3.0815,3.0819,3.0824,3.0827,3.0871,3.0863,3.0894,3.0904,3.0914,3.0919,3.0938,3.095,3.0818,3.0818,3.0818,0,0,3.0952,3.0934,3.0944,3.094,3.0929,3.0942,3.0883,3.0899,3.0907,3.0848,3.0871,3.0856,3.084,3.0875,3.0889,3.0865,3.0953,3.0921,3.0928,3.0928,3.0945,3.0957,3.0968,3.0822,3.0821,3.0821,0,0,3.1041,3.103,3.1059,3.105,3.1034,3.1009,3.1017,3.0991,3.0979,3.1001,3.0956,3.0964,3.0975,3.0965,3.0961,3.1045,3.1009,3.1047,3.1103,3.1122,3.1132,3.1141,3.1168,3.1179,3.1053,3.1053,3.1053,0,3.11,3.1118,3.1079,3.1097,3.1095,3.1042,3.107,3.1062,3.1048,3.1048,3.1021,3.1031,3.1018,3.1047,3.1067,3.1068,3.1072,3.1049,3.1134,3.1143,3.115,3.1176,3.1186,3.1057,3.1057,3.1057,3.1056,0,3.1189,3.1202,3.1228,3.1215,3.1216,3.124,3.1203,3.1209,3.1181,3.1159,3.1181,3.1162,3.1159,3.1164,3.1138,3.119,3.1175,3.1143,3.1095,3.1168,3.1191,3.12,3.1064,3.1062,3.1061,3.106,0,0,3.1328,3.1292,3.1302,3.1294,3.1272,3.128,3.13,3.1297,3.1301,3.1294,3.1307,3.1316,3.1285,3.1281,3.1253,3.127,3.1333,3.1234,3.1233,3.1251,3.1386,3.1409,3.1421,3.131,3.1312,3.1313,3.1386,0,3.141,3.1443,3.1407,3.1446,3.1456,3.1404,3.1421,3.1408,3.1388,3.1392,3.1369,3.1375,3.1335,3.1332,3.1346,3.1323,3.1359,3.1317,3.1321,3.1321,3.1324,3.1433,3.1459,3.1528,3.1395,3.1397,3.1398,0,3.1511,3.1506,3.1546,3.1519,3.1521,3.1537,3.153,3.1535,3.1519,3.1503,3.1497,3.1463,3.1479,3.1434,3.1454,3.1426,3.1425,3.1413,3.1415,3.1412,3.1363,3.1431,3.155,3.156,3.1412,3.1411,3.141,0,3.1605,3.1609,3.1632,3.1628,3.1597,3.1609,3.1596,3.1578,3.1577,3.157,3.1569,3.1565,3.1562,3.1558,3.1523,3.1494,3.1546,3.1499,3.1531,3.1532,3.1543,3.1542,3.1661,3.1547,3.1547,3.1546,3.1546,0,3.1699,3.1725,3.1673,3.1688,3.1715,3.1673,3.17,3.1682,3.1666,3.1674,3.163,3.1639,3.1592,3.1596,3.1568,3.1587,3.1587,3.1572,3.1564,3.1575,3.1577,3.1573,3.1566,3.1549,3.1548,3.1548,3.1547,0,3.1808,3.1775,3.1797,3.1765,3.1758,3.1779,3.1751,3.1762,3.1738,3.175,3.175,3.1712,3.1714,3.1678,3.1673,3.1654,3.1684,3.1669,3.169,3.1684,3.1717,3.1714,3.1836,3.1848,3.1728,3.173,3.1731,0,3.1869,3.1888,3.1858,3.186,3.185,3.1855,3.1853,3.1812,3.1812,3.1794,3.1807,3.1804,3.18,3.1805,3.1776,3.1771,3.1754,3.1797,3.1753,3.1762,3.1751,3.175,3.175,3.1806,3.1807,3.1808,3.1809,0,3.1981,3.1963,3.1963,3.1956,3.1956,3.1949,3.1939,3.1943,3.1898,3.19,3.1901,3.1898,3.1891,3.1889,3.1878,3.1864,3.1828,3.1824,3.183,3.1841,3.1851,3.1843,3.1713,3.1821,3.182,3.1819,3.1818,3.1818,3.2066,3.2079,3.2059,3.2059,3.2047,3.2038,3.2046,3.2023,3.2023,3.2014,3.199,3.1994,3.1974,3.1956,3.1945,3.1947,3.1925,3.1936,3.1938,3.194,3.1945,3.1852,3.1945,3.1944,3.1944,3.1944,3.1943,0,3.2173,3.2157,3.2158,3.2144,3.2144,3.2112,3.2098,3.21,3.2104,3.2089,3.2085,3.2085,3.2081,3.2052,3.2045,3.2052,3.2035,3.2051,3.2049,3.2046,3.1967,3.196,3.2064,3.2064,3.2064,3.2064,3.2064,3.2064,3.2228,3.2247,3.2227,3.2238,3.2222,3.2225,3.222,3.2211,3.2198,3.2199,3.2196,3.2177,3.2156,3.2146,3.2141,3.2132,3.213,3.2152,3.2137,3.2063,3.2052,3.2041,3.2034,3.2152,3.2152,3.2216,3.2216,3.2217]}]]